[[{"header":{"parameterUnit":"m.s-1","parameterCategory":1,"la1":30.2991,"la2":30.254,"lo1":-89.0895,"lo2":-89.0444,"dy":0.0017,"dx":0.0017,"nx":28,"ny":28,"refTime":"2024-05-05T09:00:00:Z","depth":0,"parameterNumber":2,"parameterNumberName":"U-component_of_WINDS"},"data":[0,0,0,0,0,0,0,0,0,0,0,0,0,0,0,0,0,0,0,0,0,0,0,0,0,0,0,0,0,0,0,0,0,0,0,0,0,0,0,0,0,0,0,0,0,0,0,0,0,0,0,0,0,0,0,0,0,0,-2.3041,-2.3041,0,-2.3075,-2.3075,-2.3076,-2.3062,-2.3061,-2.306,-2.306,-2.3094,-2.3096,-2.3098,0,0,0,0,0,0,0,0,0,0,0,0,0,-2.2965,-2.2966,-2.3041,-2.3041,-2.3042,-2.3075,-2.3075,-2.3076,-2.3062,-2.3061,-2.306,-2.3059,-2.3094,-2.3096,-2.3098,0,0,0,0,0,0,0,0,0,0,0,0,0,-2.2998,-2.2967,-2.3041,-2.3039,-2.3039,-2.3075,-2.3075,-2.3076,-2.3062,-2.3061,-2.306,-2.3059,-2.3093,-2.3096,-2.3098,-2.3137,0,0,-2.3106,-2.3107,0,0,0,0,0,0,0,0,-2.2996,-2.3001,-2.3039,-2.3039,-2.3039,-2.3063,-2.3061,-2.3097,-2.3063,-2.3054,-2.306,-2.3058,-2.3085,-2.3088,-2.3097,-2.3139,-2.3141,-2.3106,-2.3107,-2.3108,-2.3109,0,0,0,0,0,0,0,-2.2994,-2.3,-2.3054,-2.3039,-2.304,-2.3037,-2.304,-2.3068,-2.3076,-2.3054,-2.3053,-2.3058,-2.3085,-2.3095,-2.3098,-2.3141,-2.3106,-2.3108,-2.311,-2.3111,-2.3218,-2.3219,0,0,0,0,0,0,-2.2992,-2.2998,-2.3053,-2.3055,-2.3015,-2.3039,-2.3043,-2.3057,-2.3075,-2.3077,-2.3059,-2.3057,-2.3091,-2.3095,-2.3099,-2.3146,-2.3108,-2.3111,-2.3112,-2.3216,-2.3218,-2.3219,0,0,0,0,0,0,-2.299,-2.2997,-2.3052,-2.3026,-2.3033,-2.3042,-2.3057,-2.3058,-2.3068,-2.3078,-2.308,-2.3067,-2.309,-2.3095,-2.3128,-2.3147,-2.3112,-2.3114,-2.3215,-2.3217,-2.3219,-2.3241,0,0,0,0,0,0,-2.2988,-2.2996,-2.3011,-2.3027,-2.3035,-2.3081,-2.3058,-2.3059,-2.3072,-2.307,-2.3087,-2.3088,-2.309,-2.3124,-2.3131,-2.315,-2.3116,-2.3213,-2.3216,-2.3218,-2.3239,-2.3244,-2.3248,0,0,0,0,0,-2.2985,-2.3016,-2.3012,-2.3019,-2.3053,-2.3082,-2.3086,-2.3087,-2.3074,-2.3089,-2.3096,-2.3088,-2.3144,-2.3128,-2.3135,-2.3155,-2.3212,-2.3215,-2.3218,-2.3237,-2.3243,-2.3248,0,0,0,0,0,0,-2.3003,-2.3018,-2.3014,-2.3051,-2.3065,-2.3079,-2.3098,-2.3093,-2.3112,-2.3109,-2.3109,-2.3113,-2.3147,-2.3154,-2.3136,-2.3194,-2.3176,-2.3181,-2.3188,-2.3194,-2.3199,-2.3196,-2.3118,0,0,0,0,0,-2.3011,-2.3032,-2.3045,-2.3076,-2.3084,-2.309,-2.3102,-2.3102,-2.3116,-2.3122,-2.3132,-2.3146,-2.3167,-2.3181,-2.3201,-2.324,-2.3244,-2.3258,-2.3262,-2.3266,-2.327,-2.3291,-2.3297,-2.3229,-2.3229,-2.3229,0,0,-2.3028,-2.3039,-2.3053,-2.308,-2.3091,-2.3113,-2.3095,-2.3119,-2.3136,-2.3126,-2.3157,-2.3165,-2.3181,-2.3217,-2.3234,-2.3225,-2.329,-2.327,-2.3273,-2.3275,-2.3295,-2.3301,-2.3307,-2.3231,-2.3231,-2.3231,0,0,-2.307,-2.3081,-2.3108,-2.312,-2.3137,-2.3141,-2.3147,-2.3163,-2.3167,-2.3199,-2.3192,-2.3212,-2.3248,-2.326,-2.3271,-2.3318,-2.3312,-2.3325,-2.3349,-2.3369,-2.3375,-2.3379,-2.3396,-2.3402,-2.3329,-2.3329,-2.3329,0,-2.3089,-2.3123,-2.3123,-2.3148,-2.316,-2.3152,-2.318,-2.3191,-2.3214,-2.3223,-2.3212,-2.3258,-2.3268,-2.3307,-2.3319,-2.3328,-2.3336,-2.3323,-2.3374,-2.3379,-2.3383,-2.3399,-2.3405,-2.333,-2.333,-2.333,-2.333,0,-2.3145,-2.3168,-2.3188,-2.321,-2.3225,-2.3251,-2.3256,-2.3271,-2.3269,-2.3274,-2.3306,-2.3319,-2.3341,-2.3351,-2.3349,-2.3389,-2.3383,-2.3374,-2.3355,-2.3391,-2.3406,-2.3412,-2.3332,-2.3332,-2.3331,-2.3331,0,0,-2.3199,-2.3221,-2.3228,-2.3238,-2.3256,-2.3274,-2.3301,-2.3323,-2.3335,-2.3351,-2.3373,-2.3404,-2.3395,-2.3408,-2.3408,-2.3426,-2.3463,-2.3414,-2.3415,-2.3422,-2.3508,-2.3515,-2.3522,-2.3459,-2.346,-2.3461,-2.3506,0,-2.3242,-2.3288,-2.3289,-2.3331,-2.3352,-2.3345,-2.3368,-2.3382,-2.3388,-2.3407,-2.3413,-2.3435,-2.3422,-2.3429,-2.3447,-2.3455,-2.348,-2.3451,-2.3479,-2.348,-2.3475,-2.353,-2.3537,-2.3579,-2.3512,-2.3513,-2.3514,0,-2.3299,-2.3317,-2.3361,-2.3376,-2.3385,-2.3405,-2.3426,-2.3444,-2.346,-2.3463,-2.3477,-2.3474,-2.3501,-2.3482,-2.3519,-2.35,-2.3511,-2.3516,-2.3518,-2.352,-2.3499,-2.3533,-2.3593,-2.3599,-2.3523,-2.3522,-2.3522,0,-2.3334,-2.3369,-2.3399,-2.3408,-2.3427,-2.3441,-2.345,-2.3464,-2.3477,-2.3495,-2.3504,-2.3525,-2.3536,-2.3552,-2.3555,-2.3541,-2.3593,-2.3574,-2.3596,-2.3596,-2.3606,-2.3605,-2.3668,-2.3614,-2.3614,-2.3614,-2.3614,0,-2.3382,-2.3409,-2.3415,-2.3434,-2.3464,-2.3466,-2.3496,-2.3503,-2.3516,-2.3536,-2.3532,-2.3551,-2.3554,-2.3574,-2.3577,-2.3607,-2.3612,-2.3615,-2.3616,-2.3616,-2.3615,-2.3623,-2.362,-2.3616,-2.3615,-2.3615,-2.3615,0,-2.3426,-2.3431,-2.3464,-2.3479,-2.3483,-2.3505,-2.3518,-2.3536,-2.3541,-2.3567,-2.3573,-2.3582,-2.3605,-2.361,-2.3637,-2.3639,-2.3675,-2.3673,-2.367,-2.3669,-2.3691,-2.3689,-2.376,-2.377,-2.371,-2.3711,-2.3711,0,-2.3456,-2.3477,-2.3494,-2.3507,-2.3516,-2.3538,-2.3551,-2.3553,-2.3568,-2.3587,-2.3603,-2.3626,-2.3644,-2.3682,-2.369,-2.3712,-2.3709,-2.3733,-2.3713,-2.3712,-2.371,-2.3708,-2.371,-2.3737,-2.3738,-2.3738,-2.3739,0,-2.351,-2.3511,-2.3531,-2.3551,-2.3567,-2.3583,-2.3599,-2.361,-2.3614,-2.363,-2.3654,-2.3668,-2.3697,-2.3719,-2.3741,-2.375,-2.3745,-2.3745,-2.3751,-2.3751,-2.3749,-2.375,-2.368,-2.3743,-2.3743,-2.3742,-2.3742,-2.3742,-2.3548,-2.3566,-2.3581,-2.3602,-2.3614,-2.3629,-2.3646,-2.3654,-2.3674,-2.3697,-2.3697,-2.3723,-2.3738,-2.3766,-2.3776,-2.3797,-2.3789,-2.3798,-2.3801,-2.3803,-2.3805,-2.3745,-2.3801,-2.3801,-2.3801,-2.38,-2.38,0,-2.3601,-2.361,-2.363,-2.3652,-2.3669,-2.3663,-2.368,-2.3694,-2.3717,-2.3732,-2.375,-2.3777,-2.3799,-2.381,-2.3832,-2.3846,-2.3845,-2.3852,-2.3851,-2.3853,-2.381,-2.3802,-2.3853,-2.3853,-2.3853,-2.3853,-2.3853,-2.3853,-2.3631,-2.3661,-2.3664,-2.37,-2.3709,-2.3734,-2.3744,-2.3758,-2.3769,-2.38,-2.3818,-2.3825,-2.3838,-2.3861,-2.3881,-2.3883,-2.3891,-2.39,-2.3901,-2.3861,-2.3856,-2.3851,-2.3843,-2.3901,-2.3901,-2.3942,-2.3942,-2.3943]},{"header":{"parameterUnit":"m.s-1","parameterCategory":1,"la1":30.2991,"la2":30.254,"lo1":-89.0895,"lo2":-89.0444,"dy":0.0017,"dx":0.0017,"nx":28,"ny":28,"refTime":"2024-05-05T09:00:00:Z","depth":0,"parameterNumber":3,"parameterNumberName":"V-component_of_WINDS"},"data":[0,0,0,0,0,0,0,0,0,0,0,0,0,0,0,0,0,0,0,0,0,0,0,0,0,0,0,0,0,0,0,0,0,0,0,0,0,0,0,0,0,0,0,0,0,0,0,0,0,0,0,0,0,0,0,0,0,0,5.7227,5.7228,0,5.7292,5.7293,5.7294,5.7246,5.7244,5.7242,5.724,5.73,5.7304,5.7307,0,0,0,0,0,0,0,0,0,0,0,0,0,5.7056,5.7059,5.7227,5.7228,5.7229,5.7292,5.7293,5.7294,5.7246,5.7244,5.7241,5.7239,5.7299,5.7303,5.7307,0,0,0,0,0,0,0,0,0,0,0,0,0,5.7126,5.706,5.7227,5.7213,5.7212,5.7292,5.7293,5.7294,5.7247,5.7244,5.724,5.7238,5.7298,5.7303,5.7308,5.7403,0,0,5.7324,5.7327,0,0,0,0,0,0,0,0,5.7122,5.7133,5.7214,5.7214,5.7214,5.7258,5.7255,5.7331,5.7248,5.7233,5.724,5.7236,5.7288,5.7294,5.7313,5.7406,5.7409,5.7325,5.7328,5.733,5.7332,0,0,0,0,0,0,0,5.7118,5.713,5.7253,5.7215,5.7215,5.7201,5.7208,5.7269,5.7277,5.7234,5.7231,5.724,5.7287,5.7308,5.7314,5.741,5.7325,5.7329,5.7333,5.7335,5.7584,5.7587,0,0,0,0,0,0,5.7115,5.7126,5.7251,5.7255,5.716,5.7207,5.7214,5.7247,5.7277,5.7278,5.7242,5.7237,5.73,5.7308,5.7316,5.7429,5.733,5.7335,5.7338,5.7581,5.7585,5.7588,0,0,0,0,0,0,5.7111,5.7127,5.7248,5.719,5.7204,5.7213,5.725,5.725,5.727,5.7283,5.7283,5.7262,5.7298,5.7308,5.7382,5.7431,5.7338,5.7342,5.7577,5.7582,5.7587,5.7657,0,0,0,0,0,0,5.7107,5.7126,5.7163,5.7191,5.7207,5.7315,5.7253,5.7253,5.728,5.7274,5.7302,5.7303,5.7297,5.7375,5.7388,5.7436,5.7347,5.7572,5.7579,5.7585,5.765,5.7664,5.7676,0,0,0,0,0,5.7101,5.7179,5.7166,5.7181,5.7255,5.7318,5.7328,5.732,5.7284,5.7321,5.7329,5.7302,5.7424,5.7383,5.7397,5.7448,5.7569,5.7577,5.7584,5.7645,5.7661,5.7675,0,0,0,0,0,0,5.7155,5.7183,5.7168,5.7258,5.7287,5.731,5.7357,5.7338,5.7376,5.7368,5.7356,5.7362,5.744,5.7451,5.7405,5.7541,5.749,5.7501,5.7531,5.7547,5.7559,5.7555,5.7351,0,0,0,0,0,5.7178,5.7229,5.725,5.7327,5.7342,5.7347,5.7375,5.7367,5.7395,5.7406,5.7419,5.7446,5.749,5.7519,5.7561,5.7652,5.7657,5.7694,5.7707,5.7717,5.7726,5.7775,5.7791,5.7614,5.7614,5.7613,0,0,5.7225,5.7246,5.7279,5.7339,5.736,5.7411,5.7358,5.7414,5.7451,5.7414,5.7485,5.7496,5.7525,5.7608,5.7645,5.762,5.7776,5.7727,5.7735,5.7738,5.7784,5.7801,5.7816,5.7619,5.7618,5.7617,0,0,5.7336,5.7358,5.7425,5.7448,5.7482,5.7485,5.7501,5.7528,5.7534,5.7606,5.7579,5.7622,5.7698,5.772,5.7741,5.7862,5.7838,5.7875,5.7941,5.7988,5.8002,5.8014,5.8057,5.8072,5.7885,5.7885,5.7885,0,5.739,5.7468,5.7461,5.7521,5.7547,5.7518,5.7584,5.7606,5.7651,5.7669,5.764,5.7736,5.7753,5.7841,5.787,5.7889,5.7905,5.7872,5.8001,5.8013,5.8025,5.8065,5.8081,5.7889,5.7889,5.7888,5.7888,0,5.7532,5.7586,5.7636,5.7682,5.7714,5.7777,5.7778,5.7811,5.78,5.7806,5.7878,5.7898,5.7943,5.7963,5.7953,5.8049,5.8033,5.8003,5.7951,5.8046,5.8083,5.8099,5.7896,5.7894,5.7893,5.7892,0,0,5.7678,5.7721,5.7739,5.776,5.7795,5.7836,5.7897,5.7943,5.7971,5.8002,5.8052,5.8118,5.8091,5.8114,5.8106,5.8148,5.8241,5.8113,5.8113,5.8135,5.8348,5.837,5.8388,5.8226,5.8229,5.8231,5.8345,0,5.7791,5.79,5.7895,5.7995,5.8045,5.8018,5.807,5.8097,5.8104,5.8145,5.8151,5.8198,5.8159,5.8174,5.8214,5.8222,5.8284,5.8213,5.827,5.8272,5.8263,5.8407,5.843,5.8537,5.836,5.8362,5.8364,0,5.7938,5.7977,5.8082,5.811,5.8131,5.8179,5.822,5.8261,5.8289,5.8291,5.8319,5.8304,5.8363,5.8311,5.8392,5.8344,5.8367,5.8374,5.8378,5.8382,5.8323,5.8414,5.8571,5.8587,5.8387,5.8385,5.8384,0,5.8033,5.8112,5.8185,5.8204,5.8238,5.8272,5.8288,5.8314,5.8342,5.8377,5.8395,5.8437,5.8459,5.8491,5.8486,5.8449,5.8569,5.8516,5.857,5.857,5.8596,5.8594,5.8757,5.8612,5.8612,5.8612,5.8611,0,5.8159,5.8225,5.8229,5.8274,5.8346,5.834,5.8411,5.8422,5.8446,5.8491,5.847,5.8512,5.8505,5.8547,5.8544,5.8611,5.8621,5.8623,5.8621,5.8624,5.8624,5.8638,5.8631,5.8616,5.8615,5.8614,5.8613,0,5.8278,5.8284,5.8362,5.8389,5.8397,5.8449,5.8471,5.8513,5.8518,5.8576,5.8589,5.8596,5.8645,5.8644,5.8699,5.8697,5.8779,5.8769,5.877,5.8767,5.8822,5.8816,5.8999,5.9022,5.8863,5.8864,5.8866,0,5.8358,5.8408,5.8441,5.8471,5.849,5.8538,5.8567,5.8562,5.8593,5.863,5.8667,5.8714,5.8751,5.8829,5.8838,5.888,5.887,5.8931,5.8876,5.8878,5.887,5.8867,5.8871,5.8942,5.8944,5.8945,5.8946,0,5.8499,5.85,5.8543,5.8588,5.8624,5.8658,5.869,5.8715,5.8714,5.8749,5.88,5.8829,5.8886,5.8932,5.8972,5.8986,5.8966,5.8964,5.8978,5.8982,5.898,5.8981,5.8799,5.8959,5.8958,5.8957,5.8956,5.8956,5.86,5.8644,5.8674,5.8723,5.8747,5.8777,5.8818,5.8829,5.8872,5.8919,5.8913,5.897,5.8996,5.9048,5.9066,5.9108,5.9086,5.9108,5.9113,5.9118,5.9124,5.8975,5.9115,5.9115,5.9114,5.9114,5.9114,0,5.874,5.8759,5.8804,5.885,5.8889,5.8869,5.8903,5.8935,5.8986,5.9013,5.9051,5.9108,5.9153,5.9167,5.921,5.9241,5.9233,5.9252,5.9249,5.9253,5.9141,5.9124,5.9258,5.9258,5.9258,5.9258,5.9258,5.9258,5.8817,5.8889,5.8893,5.8976,5.8993,5.905,5.9071,5.9098,5.912,5.9186,5.9224,5.9233,5.9255,5.9299,5.9339,5.9342,5.9358,5.9381,5.938,5.9275,5.9261,5.9247,5.9231,5.9385,5.9385,5.9488,5.9489,5.949]}]]